FLOCK 1E-5

Last updated on June 20, 2016, 5:36 p.m. UTC

1 40728U 98067GL  16172.40976578  .11162844  12545-4  29340-3 0  9993
2 40728  51.6397 359.3057 0008754 271.1069  93.4781 16.45121522 53656

Satellite is not in orbit.